Tracking 19709 objects as of 19-Jun-2019
HD Live streaming from Space Station
objects crossing your sky now

COSMOS 1375 DEB

Track COSMOS 1375 DEB now!
10-day predictions


NORAD ID: 16385
Int'l Code: 1982-055Z
Perigee: 945.7 km
Apogee: 970.8 km
Inclination: 65.8 °
Period: 104.1 minutes
Semi major axis: 7329 km
RCS: 0.0186 m2 (small)
Launch date: June 6, 1982
Source: Commonwealth of Independent States (former USSR) (CIS)
Launch site: PLESETSK MISSILE AND SPACE COMPLEX (PKMTR)

Note: This is SATELLITE DEBRIS
aabbcc
Your satellite tracking list
Your tracking list is empty




NASA's NSSDC Master Catalog

Two Line Element Set (TLE):
1 16385U 82055Z   19169.24861601  .00000191  00000-0  24756-3 0  9995
2 16385  65.8297 106.9293 0017136 134.5714  13.8560 13.83608454692625
Source of the keplerian elements: AFSPC